Location: Newark
(54.4333°N, 18.5500°E)
Time: 02:38:07
(UTC+00:00)

Envisat - Pass Details

Date: 09 December 2019
Orbit: 764 x 766 km, 98.1° (Epoch: 22 January)

Event Time Altitude Azimuth Distance (km) Brightness Sun altitude
Rises 14:57:06 0° 121° (ESE) 3,230 6.0 -5.0°
Reaches altitude 10° 14:59:47 10° 107° (ESE) 2,308 5.1 -5.3°
Maximum altitude 15:03:46 24° 56° (NE) 1,568 4.0 -5.8°
Drops below altitude 10° 15:07:45 10° 4° (N) 2,319 5.2 -6.3°
Sets 15:10:27 0° 351° (N) 3,250 6.0 -6.6°
